Location: Newark
(15.4608°S, 41.1635°W)
Time: 23:32:04
(UTC+00:00)

Transit 2A - All Passes

Search period start: 30 July 2021 00:00
Search period end: 09 August 2021 00:00
Orbit: 598 x 960 km, 66.7° (Epoch: 30 July)

Date Brightness Start Highest point End Pass type
(mag) Time Alt. Az. Time Alt. Az. Time Alt. Az.
30 Jul - 07:45:30 10° SW 07:49:57 47° WNW 07:54:08 10° N visible
30 Jul - 18:47:00 10° NE 18:49:26 12° ENE 18:51:53 10° E daylight
30 Jul - 20:25:57 10° NNW 20:32:10 64° WSW 20:38:27 10° SSE daylight
31 Jul - 07:11:10 10° SSW 07:15:51 87° WNW 07:20:12 10° NNE visible
31 Jul - 19:51:42 10° NNW 19:58:00 84° ENE 20:04:22 10° SSE daylight
01 Aug - 06:37:07 10° S 06:41:41 51° ESE 06:45:55 10° NE visible
01 Aug - 19:17:45 10° N 19:23:52 55° ENE 19:30:02 10° SSE daylight
01 Aug - 21:03:27 10° W 21:07:12 16° WSW 21:10:56 10° SSW visible
02 Aug - 06:03:24 10° S 06:07:26 28° ESE 06:11:14 10° NE visible
02 Aug - 07:48:08 10° WSW 07:50:09 13° WNW 07:52:08 10° NW visible
02 Aug - 18:44:07 10° N 18:49:45 35° ENE 18:55:25 10° SE daylight
02 Aug - 20:27:49 10° WNW 20:32:53 25° WSW 20:37:56 10° SSW daylight
03 Aug - 05:30:09 10° SSE 05:33:09 17° ESE 05:36:01 10° ENE night (unlit)
03 Aug - 07:12:31 10° SW 07:16:07 23° WNW 07:19:34 10° NNW visible
03 Aug - 18:10:56 10° NNE 18:15:40 22° ENE 18:20:26 10° ESE daylight
03 Aug - 19:52:49 10° NW 19:58:37 38° WSW 20:04:25 10° S daylight
04 Aug - 06:37:44 10° SW 06:42:04 41° WNW 06:46:09 10° N visible
04 Aug - 17:38:36 10° NE 17:41:37 14° ENE 17:44:38 10° ESE daylight
04 Aug - 19:18:11 10° NNW 19:24:24 59° WSW 19:30:36 10° S daylight
05 Aug - 06:03:20 10° SSW 06:07:58 78° WNW 06:12:17 10° NNE night (unlit)
05 Aug - 18:43:53 10° NNW 18:50:13 89° WSW 18:56:33 10° SSE daylight
06 Aug - 05:29:14 10° SSW 05:33:48 57° ESE 05:38:04 10° NNE night (unlit)
06 Aug - 18:09:52 10° N 18:16:04 60° ENE 18:22:17 10° SSE daylight
06 Aug - 19:56:05 10° W 19:59:25 15° WSW 20:02:46 10° SSW daylight
07 Aug - 04:55:27 10° S 04:59:35 31° ESE 05:03:28 10° NE night (unlit)
07 Aug - 06:40:54 10° W 06:42:15 11° WNW 06:43:35 10° WNW night (unlit)
07 Aug - 17:36:11 10° N 17:41:57 38° ENE 17:47:44 10° SE daylight
07 Aug - 19:20:15 10° WNW 19:25:07 23° WSW 19:29:57 10° SSW daylight
08 Aug - 04:22:06 10° SSE 04:25:18 18° ESE 04:28:22 10° ENE night (unlit)
08 Aug - 06:04:52 10° WSW 06:08:13 21° WNW 06:11:27 10° NNW night (unlit)
08 Aug - 17:02:54 10° NNE 17:07:51 24° ENE 17:12:49 10° SE daylight
08 Aug - 18:45:08 10° NW 18:50:51 35° WSW 18:56:30 10° S daylight
